Regional Weather Roundup
Issued by NWS

Home | Current Version | Previous Version | Graphics & Text | Print | Product List | Glossary On
Versions: 1 2 3 4 5 6 7 8 9 10 11 12 13 14 15 16 17 18 19 20 21 22 23 24 25 26 27 28 29 30 31 32 33 34 35 36 37 38 39 40 41 42 43 44 45 46 47 48 49 50
000
ASUS43 KFSD 050802
RWRSD

WEATHER ROUNDUP FOR SOUTH DAKOTA
NATIONAL WEATHER SERVICE SIOUX FALLS SD
300 AM CDT SAT SEP 05 2015

NOTE: "FAIR" INDICATES FEW OR NO CLOUDS BELOW 12,000 FEET WITH NO
SIGNIFICANT WEATHER AND/OR OBSTRUCTIONS TO VISIBILITY.


SDZ001>005-009-010-012>017-050900-
NORTHWEST AND NORTH CENTRAL SOUTH DAKOTA

CITY           SKY/WX    TMP DP  RH WIND       PRES   REMARKS
BUFFALO          N/A     66  59  78 N15       29.78F
FAITH            N/A     73  63  70 E10       29.79
MOBRIDGE       MOCLDY    72  72 100 E7        29.78S
$$

SDZ012>016-024>037-041>051-057-063-072>074-050900-
SOUTHWEST AND SOUTH CENTRAL SOUTH DAKOTA

CITY           SKY/WX    TMP DP  RH WIND       PRES   REMARKS
RAPID CTY ARPT CLOUDY    67  60  78 CALM      29.80F
PIERRE         PTCLDY    69  66  90 E8        29.75F
CUSTER         CLOUDY    64  45  49 NW3       29.97F
PHILIP         CLOUDY    68  64  87 E5        29.76F
PINE RIDGE     MOCLDY    70  55  59 E5        29.82F
WINNER         FAIR      75  61  61 S9        29.78S
$$

SDZ004>011-016>023-039-040-050900-
NORTHEAST SOUTH DAKOTA

CITY           SKY/WX    TMP DP  RH WIND       PRES   REMARKS
ABERDEEN       CLEAR     69  67  93 CALM      29.81S
WATERTOWN      PTCLDY    73  69  87 S9        29.84F
BROOKINGS      CLEAR     72  66  83 S13       29.87S
$$

SDZ017-020-022-023-036>040-048>070-050900-
SOUTHEAST SOUTH DAKOTA

CITY           SKY/WX    TMP DP  RH WIND       PRES   REMARKS
SIOUX FALLS    CLEAR     75  68  78 S12       29.85S
HURON          PTCLDY    73  70  90 SE9       29.78S
CHAMBERLAIN    CLEAR     70  69  95 E6        29.78S
MITCHELL       MOCLDY    72  69  90 SE8       29.80S
YANKTON        PTCLDY    73  66  78 S10       29.81S
$$

ABBREVIATIONS USED IN REMARKS
   TC - TEMPERATURE IN CELSIUS
  WCI - WIND CHILL INDEX
   HX - HEAT INDEX
  VSB - VISIBILITY



USA.gov is the U.S. government's official web portal to all federal, state and local government web resources and services.